Wind_Speed
33 33 32 30 29 29 28 26 24 23 22 21 19 18 17 17 17 15 13 12 12 13 14 14 15 14 12 11 10 10 9 8 7 6 10 17 20 16 11 9 18 19 21 26 24 22 18 15 14 15 15 8 4 5 7 6 4 3 3 3 4 3 2 1 1 2 2 4 8 11 11 10 9 7 6 7 8 11 9 5 7 7 7 10 16 24 30 30
33 33 33 32 31 30 29 27 24 24 23 22 19 18 18 17 17 16 14 12 11 12 13 14 14 13 12 10 9 9 7 6 6 10 15 17 16 15 15 12 19 25 28 28 28 26 20 15 15 15 12 6 4 4 7 6 5 5 3 4 5 3 2 1 2 2 2 1 7 10 10 9 9 10 8 8 10 11 9 7 9 10 12 15 21 28 30 30
34 33 33 32 31 30 29 27 25 25 23 22 20 19 18 18 17 16 15 13 11 11 12 13 13 11 10 8 8 7 5 4 5 9 7 11 13 14 17 15 21 29 30 29 29 27 23 21 20 16 10 5 4 5 7 7 6 6 4 5 5 4 4 3 4 4 4 2 7 10 8 8 9 10 8 8 12 12 9 9 10 11 14 16 21 27 29 30
35 34 33 32 31 30 29 27 26 24 23 22 20 19 18 18 17 16 15 13 12 11 11 12 11 10 8 7 5 4 3 3 2 3 7 14 16 10 16 20 24 31 26 23 22 18 21 24 20 14 9 5 4 5 7 7 6 6 6 6 2 2 5 2 2 3 3 2 6 8 8 8 8 9 8 11 11 9 10 12 13 15 18 20 21 25 29 29
36 36 35 33 32 30 29 27 25 24 23 21 19 19 18 18 17 15 14 13 14 13 11 11 10 8 6 5 3 2 2 2 2 6 14 17 14 8 15 23 27 31 24 20 17 16 21 21 16 10 6 5 7 6 7 10 7 5 8 8 4 2 3 1 2 2 2 1 5 8 8 7 8 9 10 14 11 7 9 13 14 17 20 23 24 25 27 27
38 37 36 34 32 30 29 27 25 24 22 19 19 19 18 18 17 15 13 14 15 13 11 8 7 6 4 3 3 2 2 1 4 11 19 13 8 6 15 26 28 30 24 20 19 17 19 17 13 9 5 5 9 8 4 10 9 6 7 8 8 7 7 5 2 3 4 1 4 6 7 7 9 9 10 15 11 3 7 12 14 17 21 25 26 25 25 25
39 39 37 36 33 30 29 27 25 23 21 18 17 18 18 18 17 15 14 15 14 11 9 6 5 4 2 2 2 2 1 4 8 16 19 9 4 2 18 27 29 31 24 21 20 17 17 16 14 9 8 5 8 9 2 8 11 9 7 7 8 8 10 9 8 8 7 5 5 5 6 9 13 9 9 15 10 5 10 14 16 18 21 24 24 23 24 25
39 40 38 36 33 31 29 27 25 23 19 17 16 18 18 19 18 16 15 15 11 7 8 5 4 2 1 3 1 1 2 3 8 18 22 14 7 5 23 25 30 32 24 23 22 19 18 17 15 9 9 6 5 9 5 6 11 12 9 5 6 7 8 9 9 10 8 6 5 6 9 12 13 7 9 15 9 8 13 16 18 18 20 21 21 22 23 23
40 40 39 37 34 31 29 27 25 22 18 16 16 17 18 19 19 17 16 15 8 3 6 4 3 1 1 2 0 3 1 4 9 17 22 17 9 10 24 24 33 31 22 24 20 19 16 14 16 9 7 7 6 9 8 7 7 11 12 6 5 6 6 7 9 10 8 5 3 8 10 11 11 5 7 13 10 12 16 18 19 19 20 19 19 21 21 22
41 40 40 38 34 31 29 27 25 21 18 16 16 16 18 19 19 17 17 13 5 2 5 4 2 1 1 2 2 2 2 5 5 17 20 14 8 10 21 24 33 29 22 22 19 20 15 13 15 6 3 6 6 7 10 9 2 4 10 11 11 11 10 10 12 12 9 6 6 9 10 9 10 7 7 10 12 14 17 18 19 19 19 19 18 19 19 21
42 41 40 38 34 31 28 27 24 20 18 16 16 16 18 21 19 16 16 9 1 3 4 3 3 1 2 2 3 2 1 2 9 17 17 9 2 9 18 26 32 27 24 21 20 23 15 13 14 5 2 5 6 6 8 9 4 2 5 8 11 12 12 12 13 13 8 6 7 10 9 7 10 10 9 10 15 16 17 18 19 19 18 18 19 18 16 18
42 41 41 38 34 31 28 26 22 20 19 17 16 17 20 21 17 15 11 3 3 5 4 4 3 3 3 2 4 4 4 7 10 13 15 10 4 7 13 26 29 21 24 20 21 23 12 13 17 9 4 5 7 4 5 9 7 6 5 7 8 8 11 12 12 10 6 5 5 7 7 6 11 12 9 12 16 17 18 18 18 18 16 17 18 16 14 17
42 41 40 38 34 30 28 25 22 20 20 19 17 19 22 19 15 11 4 3 5 7 5 4 2 5 3 1 4 4 8 7 5 12 15 13 5 4 10 24 26 14 16 14 16 19 11 14 18 10 3 3 6 1 2 6 8 8 7 7 7 7 9 8 8 9 8 6 5 7 5 5 11 12 10 14 17 18 17 17 17 16 14 15 16 14 15 17
43 41 40 38 34 30 26 23 21 21 20 20 20 22 22 15 10 6 3 5 9 9 5 2 4 5 1 3 3 4 10 9 6 13 15 11 7 3 6 19 22 10 10 8 10 14 10 11 11 5 2 2 1 1 3 2 5 7 6 5 5 5 6 4 4 7 9 6 9 9 6 5 7 9 12 15 19 19 17 17 16 15 14 14 15 15 16 17
43 41 40 37 34 29 25 22 21 21 20 21 22 22 17 10 7 2 3 8 11 8 3 4 6 3 1 3 3 5 9 11 10 17 14 7 4 3 8 16 17 9 10 8 10 13 8 8 8 6 4 2 3 4 3 2 2 5 5 5 6 5 8 6 4 7 8 5 11 11 5 6 7 6 13 15 19 20 17 17 17 16 16 15 15 15 15 16
43 41 39 37 33 29 24 21 20 21 21 22 22 18 12 8 5 3 4 11 9 4 1 3 3 1 1 2 6 6 6 11 16 20 14 8 6 3 10 15 14 8 7 5 9 15 8 6 7 5 4 3 5 4 2 3 4 5 6 5 6 7 9 6 3 8 10 5 10 13 5 4 5 5 13 15 19 20 16 17 18 17 17 16 15 14 15 15
43 41 38 36 32 27 22 20 20 21 23 22 18 13 11 6 4 4 6 12 5 1 2 3 2 2 1 4 7 8 11 17 21 19 13 9 6 7 13 12 10 8 6 4 9 14 9 6 5 3 5 5 6 4 4 7 7 5 6 6 5 8 9 6 2 5 10 8 9 13 10 7 3 5 12 16 18 18 16 17 18 17 16 15 14 14 15 16
44 41 38 35 31 25 20 18 19 20 23 22 13 11 14 6 4 3 8 12 3 3 2 3 1 2 1 8 10 11 18 22 19 14 9 5 3 13 14 10 10 11 9 5 7 10 8 7 5 5 6 7 7 8 9 7 7 9 8 6 6 7 9 8 4 2 8 11 10 12 13 12 6 5 11 15 18 18 17 17 17 17 16 15 15 15 15 16
45 42 39 36 31 23 18 18 17 17 22 23 11 6 13 8 2 1 8 11 2 2 2 2 2 1 3 10 11 15 20 16 11 9 7 5 8 14 12 10 12 14 10 7 7 8 7 6 6 8 9 12 12 13 11 2 1 8 9 6 7 8 8 8 6 2 4 8 10 12 12 13 10 8 11 13 16 17 15 15 14 15 15 15 14 14 16 17
45 43 40 35 28 20 16 17 17 16 20 26 15 4 8 8 2 1 8 8 2 1 4 2 1 1 5 9 11 18 16 7 5 8 9 5 9 12 10 10 11 10 9 10 8 8 8 7 9 12 12 12 12 12 11 3 2 3 6 8 8 9 9 7 6 4 4 5 8 11 12 13 12 10 12 13 15 14 14 15 14 14 15 15 16 16 17 18
45 43 39 32 24 18 14 15 18 15 16 25 21 8 4 7 4 3 7 6 1 1 4 3 2 5 8 10 10 13 8 3 5 7 12 6 9 10 7 9 10 8 9 10 7 6 8 9 12 14 9 6 7 9 10 9 8 5 4 7 8 9 9 6 4 4 4 5 7 9 10 13 13 11 11 13 15 15 16 17 16 17 17 15 17 19 18 15
44 42 38 30 21 16 11 13 18 15 13 21 21 11 4 5 6 5 4 4 4 2 3 4 2 5 9 8 5 7 2 3 6 8 16 9 6 6 5 9 8 8 9 9 6 6 9 12 14 11 7 5 6 9 11 13 14 10 4 5 5 6 6 8 6 5 5 5 6 7 9 12 12 10 11 14 16 16 17 19 18 19 19 17 18 18 17 16
44 42 37 27 18 16 10 9 18 15 12 15 14 9 5 7 9 4 3 3 4 3 2 1 1 4 8 3 5 9 3 3 5 8 15 9 1 1 3 9 8 7 10 12 10 9 8 10 12 8 9 11 10 10 13 12 12 12 8 6 5 4 4 6 4 2 5 7 7 6 7 10 8 7 10 15 16 14 15 18 17 17 19 19 19 18 18 19
43 40 34 24 17 16 8 6 15 17 12 8 8 9 12 16 11 2 4 2 2 2 1 1 0 3 8 6 7 8 3 1 3 7 11 7 4 3 3 7 8 6 9 13 14 12 7 3 8 11 10 14 13 12 14 11 9 12 13 11 8 6 6 5 2 4 4 8 9 7 7 8 7 7 9 12 14 13 13 15 15 14 15 15 15 16 17 19
42 39 32 23 16 14 6 3 12 17 11 2 4 13 22 20 7 5 4 1 1 1 1 1 0 3 9 9 7 6 3 1 2 5 6 7 6 3 2 3 7 7 8 12 12 12 9 3 10 14 14 15 15 13 14 12 8 10 15 17 13 9 8 7 7 6 4 5 6 7 8 7 6 10 11 9 12 14 13 14 17 16 15 14 13 16 17 17
41 37 30 21 16 13 5 1 10 17 9 1 8 22 24 18 3 7 3 1 1 1 1 2 2 6 11 9 8 5 3 1 4 6 5 8 6 3 2 2 5 6 8 10 7 7 7 6 10 14 16 17 16 12 14 14 9 8 11 16 17 13 10 9 8 6 5 4 1 3 8 6 4 9 11 10 13 16 15 15 19 17 15 15 15 15 17 17
39 35 28 19 16 15 5 1 11 13 4 7 21 26 22 14 3 8 3 2 0 1 2 4 3 7 11 9 11 5 2 6 9 5 9 12 6 2 4 4 5 5 6 7 5 5 7 10 11 13 14 14 14 12 14 16 11 8 6 10 15 15 14 13 10 7 6 6 5 6 7 6 6 6 6 10 14 16 16 17 19 16 16 18 17 17 18 19
39 34 25 16 13 12 6 4 9 8 8 18 26 25 18 6 8 7 3 3 0 2 2 3 3 7 9 8 11 6 2 8 5 5 15 14 4 2 6 7 7 7 9 9 8 5 9 13 13 13 12 10 11 12 14 18 13 7 5 8 11 14 15 13 10 9 7 6 8 8 5 5 8 5 3 8 13 14 16 18 19 17 18 19 19 19 19 20
38 34 24 14 10 10 8 6 6 11 20 26 26 21 9 5 8 2 2 2 0 3 1 2 2 6 8 6 9 9 4 6 4 7 14 10 4 1 4 4 5 8 9 10 10 5 5 10 12 14 12 9 10 11 13 18 14 5 5 7 10 12 13 12 10 8 8 8 11 10 7 6 8 6 5 7 10 13 14 15 16 17 18 19 19 20 19 18
38 33 22 12 7 11 12 8 10 20 26 26 24 14 3 7 2 2 1 2 2 3 1 3 3 4 8 5 6 10 7 6 6 8 7 5 6 5 1 1 3 6 8 7 9 8 5 6 8 12 13 9 9 11 12 17 15 7 6 6 6 8 8 8 8 6 7 10 12 13 11 8 9 8 8 7 8 9 10 11 13 15 17 18 17 18 17 16
37 32 18 6 4 11 11 9 18 26 25 25 20 5 5 2 2 2 1 1 1 2 1 4 5 4 8 8 6 9 7 6 9 9 7 6 7 10 5 2 4 3 7 8 7 8 8 10 7 6 9 11 10 11 12 16 16 10 9 8 4 4 5 5 6 6 10 10 9 12 13 11 12 9 7 9 10 9 10 12 13 16 18 17 17 17 17 17
37 29 12 1 3 9 9 13 24 26 23 23 13 1 2 1 2 2 1 0 1 2 2 3 6 4 5 6 7 9 6 6 10 9 8 6 6 9 8 5 5 3 7 8 6 6 9 12 7 4 8 14 13 10 9 12 14 11 10 9 7 5 5 7 7 7 10 8 5 8 11 11 12 10 8 10 10 10 11 12 13 16 18 17 18 18 17 17
36 24 5 4 6 8 14 23 26 23 22 19 6 2 1 2 2 0 2 2 1 3 2 1 4 5 4 4 7 9 4 5 10 8 6 5 5 6 7 9 8 3 3 3 4 6 8 10 9 9 8 10 13 12 8 9 12 13 11 10 10 8 7 9 8 7 8 6 4 6 6 8 10 9 11 15 14 13 12 11 12 14 16 17 18 18 17 17
34 16 3 7 10 12 23 28 24 20 18 13 3 2 2 3 1 1 1 2 1 1 2 1 2 5 7 6 5 7 3 4 9 8 5 3 3 4 4 9 11 6 3 3 2 5 9 8 8 10 4 1 9 13 10 9 10 11 12 10 10 9 8 8 7 7 7 4 6 9 6 7 7 2 4 11 16 15 14 13 13 13 14 15 15 16 17 17
29 9 5 10 15 19 29 27 20 16 11 6 2 2 2 2 1 2 1 2 0 1 2 1 1 2 5 5 4 6 3 3 8 7 4 4 3 4 4 7 11 9 3 2 1 1 7 5 1 1 1 1 3 5 6 9 10 10 11 11 11 10 8 6 5 6 5 5 6 9 5 3 2 4 3 4 9 13 14 15 15 14 14 13 12 14 16 16
27 7 3 14 21 26 30 23 17 11 5 3 0 1 1 2 1 0 1 2 0 2 1 1 2 2 2 2 3 6 3 2 7 5 3 4 3 4 3 4 9 10 6 2 2 2 4 3 4 6 2 4 1 5 3 7 7 7 10 12 10 9 9 7 5 2 3 8 7 7 8 5 3 9 9 7 6 9 12 13 16 16 15 14 13 14 15 16
26 10 3 15 27 31 27 18 12 5 3 1 2 2 2 2 2 2 2 2 0 2 0 1 2 1 2 2 2 6 5 2 4 4 1 2 2 4 3 3 7 8 7 4 2 1 3 5 6 5 4 3 4 5 6 9 6 5 9 11 8 7 9 8 7 5 6 9 6 6 11 10 6 7 9 12 11 10 10 11 14 16 14 15 14 14 16 17
20 9 1 14 30 31 21 12 5 1 1 1 4 4 2 2 2 3 2 2 1 1 1 1 2 1 1 2 2 4 5 2 3 3 2 1 1 3 3 2 5 8 8 5 2 1 3 6 4 3 4 4 5 4 7 9 10 9 7 8 9 8 10 9 7 8 9 9 6 6 8 9 10 7 6 13 16 14 12 10 12 15 14 14 15 16 17 17
11 4 1 16 33 27 14 7 2 1 1 2 4 3 2 2 4 4 4 2 0 1 1 1 1 1 1 1 1 2 3 3 3 3 1 2 1 3 4 3 4 8 11 6 3 2 3 4 3 1 2 6 3 5 9 10 12 12 8 8 9 7 7 9 8 6 7 8 7 7 7 8 10 7 7 10 14 16 14 10 10 13 13 13 14 15 15 15
5 1 1 20 35 22 9 6 5 3 3 3 2 2 2 2 3 5 6 4 1 1 1 2 2 1 1 1 1 1 2 1 2 2 1 2 1 3 5 4 5 9 11 8 3 2 2 2 4 2 4 6 3 5 7 5 6 9 9 9 11 7 4 6 8 8 7 7 6 7 7 7 4 5 9 12 11 13 14 10 9 11 13 15 15 14 14 15
3 1 2 23 34 19 6 6 6 4 2 3 3 2 3 4 4 6 8 7 3 2 2 1 2 1 1 1 1 1 2 2 1 2 2 1 1 1 3 4 6 9 9 6 2 2 2 2 4 5 5 5 3 2 2 3 2 2 4 6 9 8 7 8 9 10 9 8 7 7 7 7 3 3 8 13 13 14 14 13 11 10 13 14 14 14 15 15
3 1 5 25 31 14 4 5 3 3 2 2 3 2 3 5 4 6 8 7 4 3 2 2 2 2 1 0 0 1 2 2 2 2 2 2 1 2 1 4 5 7 6 5 3 3 4 3 4 6 7 8 11 9 6 5 4 3 4 4 4 5 7 9 8 7 10 10 8 8 8 7 3 3 5 9 11 13 14 13 12 12 12 13 14 15 15 15
4 2 8 25 25 8 3 5 2 3 4 2 2 1 2 4 5 6 7 7 5 3 2 2 1 1 2 1 0 0 2 2 3 3 2 3 3 2 1 3 5 6 5 4 3 4 4 4 3 5 6 9 13 9 3 3 4 4 3 1 3 4 4 5 6 3 7 11 9 8 9 7 4 4 4 8 9 9 9 9 10 10 8 10 13 14 14 14
4 4 5 20 23 9 3 4 2 3 3 2 3 5 4 4 6 7 6 6 6 4 2 3 2 1 3 2 0 1 2 2 2 3 2 3 2 1 2 1 2 5 4 3 3 4 4 2 2 3 4 6 8 6 4 3 2 1 0 0 1 4 7 6 5 4 5 10 12 10 8 6 3 3 3 7 9 9 9 8 8 8 6 6 7 8 10 11
4 1 3 11 19 14 5 3 2 2 3 3 4 7 5 3 5 6 4 3 5 4 2 2 3 2 4 4 1 1 3 3 2 2 2 3 2 1 3 4 1 3 5 6 7 5 4 3 3 4 5 7 6 4 3 1 1 2 1 2 2 4 6 4 3 5 6 8 12 11 7 6 4 3 5 9 8 10 9 6 5 6 7 7 6 5 6 7
2 2 2 4 8 8 5 4 3 2 2 3 3 5 6 4 3 5 4 3 6 6 2 2 3 3 5 6 2 2 3 3 3 3 3 4 4 2 3 5 4 5 7 9 8 4 4 5 6 6 7 7 4 1 2 4 5 5 5 7 5 2 2 2 2 4 2 3 9 8 6 9 7 5 7 9 8 8 7 5 5 5 6 7 7 7 8 8
1 1 3 3 3 4 4 4 5 4 2 1 1 3 6 6 4 5 4 3 6 7 2 2 5 4 5 6 3 3 3 3 4 5 6 7 6 4 3 4 5 6 8 8 5 3 4 6 8 10 12 13 11 8 7 7 8 9 10 11 9 5 3 4 5 4 4 4 7 4 4 10 7 4 7 8 6 7 7 5 4 4 4 4 4 5 8 9
2 1 2 2 2 4 4 4 6 5 3 1 1 2 5 6 6 5 4 3 5 6 2 2 5 6 5 4 3 3 3 4 5 4 4 5 5 5 5 5 6 7 7 6 2 2 4 7 8 10 13 14 14 11 9 9 10 11 12 14 13 10 7 7 9 8 6 5 5 6 7 5 2 4 6 7 7 9 9 7 4 5 6 6 6 6 8 9
2 1 1 2 2 2 3 4 5 5 4 3 2 4 5 6 6 5 3 3 4 4 3 3 5 7 6 3 2 3 3 4 5 4 3 5 7 6 6 6 7 6 6 6 3 2 4 6 7 9 12 15 15 12 9 11 13 13 13 14 14 12 10 10 11 12 11 9 8 13 14 7 2 5 8 9 9 10 9 7 6 6 6 7 7 9 10 12
2 1 2 2 2 1 1 2 3 2 3 2 2 4 5 5 6 6 4 3 3 2 3 5 7 8 7 4 2 4 5 7 8 7 7 8 8 6 5 6 5 4 5 5 3 3 4 5 6 7 9 13 14 11 10 12 13 13 13 14 13 11 10 10 9 9 9 9 11 16 16 8 1 3 8 10 8 6 6 6 7 6 7 8 8 10 11 14
1 1 2 2 2 2 1 2 2 1 1 2 2 4 4 3 5 7 5 3 4 3 4 7 9 8 6 5 4 7 8 8 10 11 11 10 10 8 6 6 6 6 6 6 4 4 5 5 6 6 7 9 8 6 7 9 11 13 15 14 12 9 6 4 1 1 2 5 8 10 9 4 2 7 9 7 4 3 4 6 7 7 8 9 10 11 12 14
2 2 1 1 2 2 2 2 2 2 2 3 3 4 3 3 3 6 5 1 3 5 5 7 9 8 6 7 8 8 8 10 12 13 12 12 13 12 11 11 13 11 9 8 6 6 6 6 5 4 6 7 5 2 3 6 9 11 11 11 11 7 5 4 4 6 5 3 5 6 4 5 8 10 8 3 1 2 3 5 7 8 10 11 11 12 13 15
Wind_Direction
12 11 7 4 2 1 359 355 355 357 358 356 355 354 351 349 347 345 343 335 327 318 315 313 311 311 310 314 311 307 309 302 295 270 245 259 262 239 240 216 179 171 158 153 151 150 153 160 153 157 164 161 182 182 185 207 205 195 206 224 236 231 236 212 153 25 27 142 156 172 180 171 152 145 133 142 139 135 143 118 111 97 84 120 130 141 150 152
11 9 7 5 3 2 360 357 356 357 357 355 354 354 351 350 347 344 340 333 326 317 313 311 310 310 309 312 310 309 311 299 280 261 261 275 284 252 233 209 176 166 156 156 159 157 157 163 157 160 169 169 181 180 186 193 196 202 205 230 231 215 212 251 292 4 352 170 161 173 182 183 162 149 155 158 148 145 142 128 120 104 105 120 132 144 150 154
11 9 7 5 3 2 1 358 357 356 355 354 354 353 351 351 349 344 338 332 326 316 312 310 312 312 309 312 310 315 309 296 274 257 299 347 324 271 228 200 179 169 164 167 166 163 159 156 156 159 167 180 183 183 190 187 193 205 215 237 237 241 254 265 273 287 304 275 169 171 176 186 164 150 170 164 155 165 163 150 145 135 134 139 143 149 152 157
10 9 7 4 2 1 1 358 356 355 354 353 353 352 352 352 350 344 337 333 330 321 312 308 313 311 311 321 317 330 294 260 291 279 352 358 347 303 219 191 178 174 169 167 163 157 149 147 154 156 162 180 183 190 200 193 186 191 208 230 232 251 252 245 296 295 280 230 164 167 173 183 167 160 177 161 159 186 190 175 165 154 147 148 152 155 158 161
10 9 6 4 2 360 360 358 355 354 354 352 351 351 351 352 350 346 341 339 336 328 316 306 311 314 315 342 15 20 284 224 45 359 343 329 333 320 206 181 176 176 165 159 153 144 144 145 150 152 163 173 173 192 211 203 198 205 217 237 242 246 264 279 57 49 25 113 149 168 183 175 161 176 183 173 180 202 197 184 165 154 151 153 157 159 163 166
10 8 6 4 1 358 358 357 354 354 353 351 350 350 349 349 349 347 344 343 341 337 331 317 312 321 333 9 62 53 280 248 8 349 344 328 328 334 185 173 176 173 159 155 151 147 149 149 154 159 175 176 183 192 197 198 207 229 227 242 244 251 267 275 292 317 346 308 186 186 187 163 169 191 190 192 202 178 162 168 154 151 153 154 157 162 167 171
10 8 6 3 360 358 356 355 354 353 353 351 349 349 346 346 346 345 345 344 344 351 356 342 326 331 15 49 102 65 279 280 345 1 2 354 337 354 167 169 174 167 158 157 153 155 154 159 170 164 171 177 196 201 191 193 208 237 245 250 248 254 260 269 287 291 298 267 239 210 182 179 191 195 189 203 210 136 138 148 145 147 151 154 158 165 170 173
9 7 5 2 359 357 355 354 353 353 352 350 348 348 344 342 341 340 343 340 339 6 16 6 354 349 72 78 120 339 251 268 9 23 23 24 14 145 158 164 171 165 163 167 163 165 159 166 175 161 181 187 180 193 197 191 206 231 243 257 252 257 264 272 284 284 286 273 246 203 195 200 199 182 186 205 201 146 142 141 143 147 151 158 163 166 170 173
9 7 4 1 359 357 355 353 352 353 352 350 348 346 341 338 336 337 340 336 330 18 27 28 17 4 123 102 281 304 217 121 56 28 16 20 27 151 158 162 171 166 165 173 169 168 164 172 177 166 188 185 167 184 193 199 209 225 231 251 258 261 275 281 282 279 284 279 218 202 213 210 193 178 201 205 185 146 142 144 147 151 157 163 166 168 170 173
9 7 4 2 359 357 355 353 353 354 353 351 348 341 337 335 332 335 337 331 323 35 37 48 7 336 169 167 217 304 160 142 36 359 356 4 28 156 169 170 171 168 167 173 175 176 178 178 173 160 171 179 184 187 192 205 225 224 230 246 256 267 276 277 278 274 278 275 228 221 232 211 184 197 217 188 166 148 144 150 153 157 163 167 169 170 171 174
8 6 4 2 359 357 355 354 355 356 354 352 346 337 334 333 332 336 336 331 19 43 42 39 337 257 163 170 225 259 178 248 321 345 353 349 337 178 186 179 173 171 167 171 183 186 187 172 158 148 170 169 180 193 201 216 261 266 244 253 252 264 269 264 265 267 271 264 228 222 239 208 179 209 219 167 157 155 151 156 160 164 167 169 171 170 173 176
7 5 3 1 360 358 356 355 357 357 355 349 341 334 329 330 335 340 339 1 70 30 30 4 319 199 154 156 226 263 319 305 317 357 8 352 282 216 209 187 179 177 170 172 188 189 186 170 168 175 172 150 164 186 218 219 238 253 271 278 269 275 270 255 250 254 246 246 219 203 233 208 191 214 204 159 159 160 157 161 165 168 168 169 172 171 175 177
7 4 2 0 359 358 357 356 357 356 352 346 339 330 326 330 341 349 0 70 33 8 6 343 258 172 151 203 239 294 344 336 349 11 4 357 357 226 225 191 183 187 179 173 179 181 180 180 185 186 166 166 168 135 283 213 218 238 252 267 281 289 273 248 231 232 228 232 189 181 239 224 207 211 179 155 163 164 161 166 169 169 169 171 174 174 176 178
6 4 1 360 359 359 358 358 357 356 353 347 336 328 327 337 355 9 70 40 9 358 2 17 154 152 193 246 259 337 2 1 356 352 348 355 23 129 188 184 180 182 182 171 164 171 174 184 198 212 220 246 195 333 297 195 195 218 225 238 254 265 260 239 196 206 212 205 176 191 252 247 222 199 169 161 166 168 169 171 171 171 171 173 176 177 179 181
5 4 1 359 360 0 0 360 360 360 357 347 334 330 334 354 13 59 85 13 2 5 39 114 144 153 286 244 302 348 3 355 331 334 337 340 0 137 160 175 175 162 156 154 168 177 170 170 191 219 220 269 292 267 244 203 197 201 204 215 215 229 252 252 207 199 208 186 176 197 247 258 258 200 169 168 170 172 173 173 173 174 175 175 178 180 182 184
4 3 0 359 360 2 1 2 3 4 2 348 336 340 351 13 37 105 44 360 1 29 120 133 133 190 315 350 334 332 348 338 324 326 324 310 306 196 157 165 168 156 147 120 157 175 178 174 182 215 225 231 237 235 225 224 218 200 215 219 189 203 237 247 220 211 212 183 179 201 234 261 263 193 169 171 175 175 173 175 176 177 177 177 180 181 182 183
4 2 359 358 360 3 3 5 6 6 7 353 344 2 10 23 90 110 14 356 4 103 218 191 163 204 219 1 342 329 331 325 320 319 314 310 289 169 143 152 164 159 153 106 137 161 177 185 173 203 219 226 221 210 220 223 210 193 213 223 192 203 228 234 232 212 204 200 192 204 228 242 228 153 171 175 176 178 177 178 179 178 180 179 181 182 183 184
3 1 359 358 0 3 4 7 8 10 13 2 351 17 23 41 119 89 2 353 338 197 222 212 232 190 244 343 339 317 317 318 319 319 321 341 189 165 144 144 157 153 156 148 144 156 174 186 187 202 206 215 213 203 212 215 204 200 200 209 203 211 231 228 224 181 185 205 208 203 224 239 225 154 175 182 179 182 182 181 179 179 180 180 182 185 186 187
2 0 358 358 0 4 5 8 12 13 18 15 1 8 27 41 125 53 358 357 14 162 350 328 1 70 287 318 319 312 314 316 331 346 358 43 137 156 141 137 151 157 164 174 172 165 169 175 190 206 208 209 208 207 212 204 174 211 207 211 211 212 229 226 225 229 180 202 214 211 224 236 228 191 184 186 185 188 185 179 180 181 181 183 185 188 189 191
2 360 357 357 0 5 7 13 18 15 20 25 23 11 23 22 344 334 355 353 57 43 330 319 4 276 295 310 313 327 334 334 6 20 10 33 138 142 129 134 150 164 176 181 175 162 173 186 198 210 213 205 200 203 213 240 353 236 209 216 222 222 232 224 220 247 231 220 223 219 228 238 234 212 194 187 187 191 186 181 182 183 183 185 189 192 193 195
2 359 357 357 1 6 10 17 20 18 22 29 36 52 43 19 360 335 343 328 253 287 277 272 284 256 284 295 307 336 349 330 355 25 14 22 155 151 138 146 155 176 187 174 150 141 181 207 214 213 207 180 182 194 209 227 241 257 221 216 226 226 237 244 237 261 244 237 238 227 234 243 239 220 197 184 187 194 191 186 185 186 188 189 192 194 194 192
1 359 356 357 3 7 8 20 19 17 23 31 42 59 82 38 351 295 302 308 296 298 263 269 254 260 286 278 307 344 319 318 345 10 11 16 170 177 165 173 177 179 175 163 145 160 198 222 221 203 170 156 183 195 203 217 229 243 239 227 230 214 244 264 252 251 241 238 248 234 238 251 246 224 200 188 193 201 197 191 188 187 188 191 193 193 190 187
1 359 356 358 7 5 3 19 16 15 25 35 47 57 43 2 337 287 217 280 298 300 292 309 195 312 327 345 8 349 345 13 348 352 2 9 141 310 197 191 194 176 172 180 183 185 199 225 217 178 155 186 196 193 200 211 224 233 232 233 228 194 221 244 223 221 239 239 253 252 250 258 252 220 204 201 202 203 200 199 196 192 192 193 193 190 188 187
1 360 357 0 7 5 5 10 8 11 16 37 64 34 352 338 334 242 200 250 295 292 286 339 292 343 343 339 340 340 356 14 313 337 351 1 11 327 234 198 197 193 187 193 199 203 210 209 179 162 167 196 199 193 200 208 219 226 229 233 228 213 225 246 316 343 273 234 237 249 262 261 242 224 218 206 206 207 200 199 201 203 202 196 191 192 193 191
360 360 358 1 9 9 7 4 3 1 356 61 62 350 337 336 333 193 215 245 210 238 185 278 19 16 336 320 332 338 308 223 271 311 328 348 347 288 239 190 203 213 196 194 207 218 226 170 146 164 179 196 203 202 201 204 218 224 227 231 232 234 237 257 292 305 285 231 208 214 245 254 222 227 229 195 197 210 200 197 204 205 201 196 193 196 197 196
358 0 358 359 11 12 12 28 355 353 355 98 338 333 334 337 307 188 219 265 146 117 103 343 354 6 348 336 337 323 216 135 332 310 329 352 340 255 230 179 201 220 187 184 216 234 225 189 161 175 186 192 202 211 202 199 219 232 221 221 226 236 241 248 261 264 258 255 207 206 241 252 215 227 227 189 192 207 200 201 208 205 198 199 200 197 195 197
356 359 357 358 10 15 26 315 344 357 12 323 331 334 335 333 219 179 227 253 152 63 26 355 341 354 356 341 332 329 164 334 322 328 357 349 341 243 230 195 187 213 167 167 224 217 197 195 182 186 194 194 202 212 197 191 213 236 206 198 212 227 234 238 247 247 257 286 287 251 242 260 249 234 214 191 200 206 200 206 211 205 200 202 205 201 198 198
353 356 356 356 7 15 25 348 347 2 337 329 336 337 334 331 167 173 265 250 237 44 38 2 334 343 343 333 351 25 45 336 332 341 343 337 337 216 227 215 207 204 171 186 221 177 179 204 193 184 201 208 208 209 190 189 213 232 176 180 201 218 227 231 241 247 258 279 268 241 214 252 252 228 177 193 209 212 203 208 211 204 202 204 206 205 201 200
350 353 353 351 3 10 6 357 346 337 336 340 342 338 340 144 163 199 284 233 72 73 77 343 344 345 336 335 17 28 3 359 14 317 325 334 347 290 226 245 252 223 198 209 231 209 189 215 196 186 209 218 209 212 191 191 211 214 163 187 202 211 219 223 232 244 251 250 252 240 211 239 257 228 197 193 210 214 207 211 212 205 205 206 206 207 203 200
347 350 349 344 0 2 353 346 338 337 340 344 343 342 116 151 206 248 199 228 42 63 17 352 359 338 351 11 26 15 4 7 353 322 330 357 3 15 107 324 322 252 224 216 234 241 261 258 207 196 213 209 200 213 201 198 204 186 176 198 199 204 209 217 222 231 247 244 245 240 219 225 259 242 206 199 213 206 196 209 212 206 208 209 208 209 205 201
345 348 346 337 4 6 358 338 338 340 339 342 345 351 151 159 276 197 184 221 69 41 35 27 17 3 27 41 26 4 5 3 355 353 5 14 20 28 26 357 360 295 220 214 226 224 238 245 220 205 213 196 198 213 204 205 205 192 198 203 188 188 191 209 204 202 235 244 234 229 217 217 243 242 199 202 213 198 194 208 207 203 207 207 208 209 205 203
345 347 346 7 14 10 4 337 338 338 333 337 343 193 184 274 222 208 332 191 172 26 54 27 14 20 38 47 29 4 355 4 4 6 16 26 45 42 38 28 355 277 210 217 214 189 222 230 211 214 208 191 199 210 196 201 206 203 204 200 199 195 185 204 202 202 230 240 222 213 208 217 243 252 227 219 217 204 207 214 205 202 204 204 207 207 205 205
347 349 5 60 14 356 349 341 339 333 326 331 331 172 214 224 208 324 16 32 47 41 50 353 16 32 35 45 23 359 347 17 7 2 15 28 55 67 59 35 9 303 230 250 214 192 220 222 206 212 210 194 202 205 198 195 200 205 202 198 203 199 202 212 209 217 230 234 217 195 199 229 250 255 230 225 229 221 217 220 212 204 202 203 205 205 204 204
348 356 87 38 11 352 345 341 336 325 319 323 307 173 200 210 160 85 49 34 66 64 46 19 13 46 55 57 25 359 7 37 13 6 14 22 38 52 43 26 19 5 323 293 240 212 219 221 208 202 202 241 213 214 216 193 189 205 202 203 210 204 213 216 209 223 231 237 206 183 187 223 223 229 207 217 229 225 217 218 215 208 204 204 204 202 203 203
350 14 108 20 6 352 346 337 327 318 304 305 300 185 201 199 115 134 98 31 62 41 53 79 47 69 66 55 35 22 17 15 11 8 31 45 37 30 19 13 16 14 352 274 326 296 238 240 19 214 276 331 230 248 239 200 197 204 196 206 217 210 211 217 227 233 233 256 221 192 209 234 234 306 304 233 236 227 218 214 210 210 206 202 204 201 202 205
353 27 82 8 359 348 345 336 323 314 267 247 248 125 97 75 59 98 31 357 39 62 28 60 59 71 57 45 31 25 14 356 5 360 53 58 42 39 41 15 13 18 22 339 323 351 261 250 12 347 264 152 64 338 286 227 217 187 193 212 211 201 207 218 235 226 221 246 229 201 232 243 272 277 251 220 237 232 222 214 211 214 203 194 199 202 203 204
352 7 19 2 354 346 345 339 324 304 219 199 121 106 60 64 26 347 350 323 287 91 335 357 46 14 17 32 21 16 6 339 4 359 21 42 44 43 40 25 12 10 17 360 292 15 311 284 319 314 218 137 6 308 255 253 248 194 201 204 181 187 211 222 231 208 213 237 221 200 229 229 225 244 219 204 217 227 220 212 214 216 203 195 200 202 202 202
343 346 2 359 351 347 348 347 339 202 173 86 104 93 49 61 42 2 342 321 284 100 132 131 44 31 24 359 1 18 357 337 14 5 347 352 56 51 23 7 5 351 351 343 278 357 330 290 292 261 237 309 339 261 235 236 231 236 226 183 172 201 207 204 222 222 220 235 231 209 225 232 227 224 200 201 210 220 218 209 215 215 203 201 206 205 202 200
345 341 131 354 349 349 355 5 33 100 84 74 95 85 40 48 52 12 345 336 218 92 133 161 65 93 112 356 347 21 360 357 5 346 345 5 27 72 46 7 349 344 340 331 294 314 327 281 255 144 304 313 315 211 222 216 212 230 233 193 196 218 211 201 210 222 224 232 237 222 217 235 235 223 224 217 210 217 219 209 214 215 204 202 208 208 201 195
359 9 88 350 349 351 8 38 55 43 62 76 62 61 28 21 33 7 359 6 17 39 60 155 146 151 123 107 205 16 11 347 332 322 332 359 354 88 59 17 347 340 332 319 293 299 321 263 259 310 318 282 230 186 209 210 202 215 220 213 208 205 205 212 212 215 222 228 231 228 229 238 228 196 224 233 221 220 221 216 217 211 204 206 209 207 196 190
339 74 31 351 350 353 17 53 51 27 68 82 42 42 13 9 13 3 8 15 27 44 23 92 123 131 139 148 162 69 345 298 287 283 265 295 353 77 62 32 353 337 327 311 297 341 340 279 276 298 294 260 230 114 73 34 3 256 239 232 221 214 210 216 218 210 215 232 231 230 247 248 214 172 216 227 223 220 218 218 223 216 207 208 210 206 197 190
349 22 344 351 354 357 33 65 51 20 76 62 17 352 336 359 12 3 9 15 27 38 24 64 83 67 109 120 37 76 340 303 243 258 260 223 268 311 59 50 348 324 320 305 301 335 322 285 271 275 272 271 275 288 307 290 268 255 254 269 282 265 229 222 227 207 204 223 229 236 256 255 212 182 220 232 229 226 221 215 218 218 210 207 209 207 200 194
11 316 330 356 1 1 63 68 60 36 57 24 355 353 336 9 21 13 15 19 19 11 15 68 71 35 76 54 352 123 349 311 247 256 260 239 264 287 128 67 352 319 314 313 313 327 303 262 257 269 271 276 271 271 282 242 204 188 213 286 320 306 298 275 270 255 216 215 214 228 245 247 215 167 220 254 253 250 249 239 230 227 218 209 209 207 200 196
348 285 308 4 19 41 82 58 51 48 45 16 34 47 39 44 37 21 12 18 17 354 351 43 23 25 46 9 332 149 323 298 250 249 254 262 262 174 183 152 358 326 317 329 343 338 305 250 244 269 251 238 233 207 162 150 129 118 212 6 325 332 335 308 267 273 247 215 212 225 235 242 230 151 208 252 258 259 257 253 248 249 252 242 230 216 204 199
327 275 255 360 28 49 72 51 42 65 48 33 52 45 31 50 49 21 3 24 25 354 324 24 19 49 38 8 26 38 313 271 251 260 251 267 267 212 221 213 247 311 302 307 316 312 289 264 253 255 231 213 203 187 187 190 4 334 277 271 302 347 346 321 250 240 237 210 215 229 239 243 228 179 218 236 249 259 253 239 230 234 242 249 251 242 218 205
326 28 321 341 26 50 76 66 42 55 46 32 58 45 24 25 24 7 8 52 29 3 348 24 15 33 31 17 12 342 316 262 259 288 269 273 283 271 222 211 234 281 290 297 303 295 275 264 254 254 255 258 268 299 315 319 311 300 299 295 294 312 328 311 242 232 253 230 224 220 228 243 230 188 212 230 238 250 250 234 223 221 222 222 222 223 213 204
351 27 4 346 2 28 50 51 34 40 44 6 30 31 21 20 8 2 16 39 14 357 351 67 49 38 25 14 357 320 308 284 279 283 275 277 285 283 247 226 246 275 285 290 295 291 272 260 256 257 258 266 279 288 293 296 288 285 291 290 289 289 276 245 234 264 334 288 236 209 216 240 242 213 225 240 247 247 248 247 248 258 260 250 241 234 225 212
27 73 15 338 343 20 27 14 9 20 35 41 56 31 16 21 20 11 7 354 357 4 11 70 47 32 19 11 335 292 288 287 276 266 274 287 295 301 294 264 257 271 280 277 277 290 271 262 262 266 266 269 275 278 279 278 274 273 274 276 279 278 264 246 249 264 276 261 270 297 278 256 316 324 286 289 300 293 288 295 312 306 298 304 304 285 262 241
26 54 14 354 3 18 16 356 350 5 26 26 35 31 12 12 15 8 348 322 340 22 30 342 349 357 352 350 306 277 280 292 288 284 302 307 303 303 297 281 268 262 261 260 257 262 262 264 268 271 275 275 272 271 267 267 270 269 264 264 266 267 263 258 257 253 245 241 260 277 280 287 358 338 320 315 315 312 305 315 332 316 310 315 301 284 271 257
36 22 357 350 349 326 315 359 348 358 36 20 13 26 7 358 4 354 331 304 309 9 22 339 332 333 329 331 300 269 275 292 293 292 296 297 294 285 274 276 272 248 239 245 253 246 241 267 291 294 284 272 269 267 257 253 261 266 266 262 257 259 261 257 258 255 245 238 242 257 271 280 272 342 323 303 301 316 315 323 334 326 327 324 301 286 273 259
18 353 353 333 347 355 355 16 349 327 45 32 19 15 354 349 0 342 321 277 258 275 326 330 328 324 314 303 280 269 277 285 281 278 278 276 275 271 264 259 256 253 245 238 245 246 240 268 296 302 287 272 266 265 255 254 261 264 263 257 245 243 247 234 231 4 276 248 243 251 263 275 356 344 319 291 287 327 335 343 341 328 323 314 297 289 280 266
9 350 5 324 347 8 1 354 342 346 28 16 2 2 339 321 341 337 336 333 251 265 289 309 316 317 303 291 289 294 297 289 280 277 273 265 259 256 254 248 245 248 248 242 250 253 248 266 279 273 276 272 256 263 286 276 263 256 250 230 211 200 193 164 86 48 23 321 265 252 279 332 342 331 314 297 343 11 8 356 337 325 321 310 299 292 284 274
Height
815 813 811 808 806 803 801 799 797 795 793 792 790 789 787 786 784 783 782 780 779 777 776 774 773 772 772 771 770 770 770 769 769 769 766 755 752 757 759 760 762 764 766 770 772 774 777 780 781 782 784 786 788 787 787 786 785 791 799 804 805 801 796 788 785 783 782 783 783 782 779 783 788 785 780 779 784 787 790 790 788 788 787 789 792 795 800 805
815 813 810 808 805 803 800 798 796 794 792 791 789 788 786 785 783 781 780 779 777 775 774 773 772 771 770 770 769 769 769 768 768 766 758 751 752 755 757 760 761 762 764 767 769 769 773 778 780 782 785 788 789 788 789 786 786 793 797 801 799 793 787 781 780 779 779 781 780 780 778 780 783 783 780 785 792 789 793 795 792 794 794 793 794 798 802 805
814 812 809 807 804 802 800 797 795 793 791 790 788 787 785 784 782 780 779 777 776 774 773 772 771 770 769 769 768 768 768 768 766 760 752 751 751 751 754 759 760 761 762 764 766 767 769 773 778 781 786 790 789 789 791 787 787 790 794 800 793 784 783 778 777 778 777 777 779 781 779 780 780 778 780 786 792 791 793 794 793 797 797 797 797 798 802 805
814 811 808 806 803 801 799 796 794 792 790 789 787 785 784 782 781 779 777 776 775 773 772 770 769 769 768 768 768 768 768 767 761 753 751 751 750 749 751 756 759 761 763 765 767 769 770 773 777 780 786 791 790 789 792 787 786 787 790 793 785 780 783 777 775 775 774 774 777 780 780 782 778 776 780 784 792 794 789 786 786 792 794 796 797 798 801 804
813 810 808 805 802 800 797 795 793 791 789 787 786 784 782 781 780 778 776 775 773 772 771 769 769 768 767 767 767 767 767 765 757 751 751 750 749 748 748 754 758 760 764 766 768 771 773 774 777 782 786 790 791 791 790 784 782 786 785 782 779 779 783 776 773 774 773 773 777 780 782 781 777 778 779 781 789 788 780 778 779 783 787 790 794 797 800 803
812 809 806 804 801 799 796 794 792 790 788 786 785 783 781 780 778 777 775 774 772 771 769 768 768 767 767 767 767 767 767 762 755 752 751 748 748 747 747 753 757 760 764 766 769 771 773 775 778 784 786 788 790 789 787 782 781 788 783 777 777 777 780 775 772 773 773 776 779 779 777 776 779 781 777 777 780 775 770 772 777 781 784 786 790 795 798 801
811 808 805 803 800 797 795 793 790 788 787 785 783 781 780 778 777 776 774 773 772 770 769 768 768 767 767 767 767 767 767 760 754 753 750 747 747 746 748 753 756 760 763 765 767 769 772 775 778 780 785 787 788 786 785 782 782 788 785 779 777 775 776 773 771 771 772 776 775 773 774 776 781 781 777 777 774 769 769 771 776 781 784 788 791 793 796 799
810 807 805 802 799 796 794 791 789 787 785 783 782 780 779 777 776 775 773 772 771 769 769 768 768 768 767 767 767 766 765 760 755 754 750 748 748 748 750 754 757 759 761 764 764 765 769 774 776 776 783 784 783 785 784 784 785 787 785 780 776 775 773 770 770 770 770 771 770 771 776 776 776 776 777 776 772 769 770 772 776 781 785 789 791 793 795 798
810 807 804 801 798 795 793 790 788 786 784 782 781 779 778 776 775 773 773 771 770 769 768 768 768 768 767 767 767 764 759 756 754 753 752 751 750 750 752 753 756 757 760 763 763 765 767 771 772 772 778 780 780 783 782 786 787 782 780 779 777 776 772 770 769 769 769 769 769 774 777 774 770 773 777 773 770 770 770 774 778 781 786 789 791 793 795 797
809 806 803 800 797 794 791 789 787 785 783 781 780 778 776 775 774 772 771 770 769 769 768 768 768 768 768 767 767 764 756 753 754 753 752 753 752 752 753 752 754 756 758 761 763 764 763 765 767 768 773 777 779 780 781 784 780 775 777 777 776 776 771 770 770 767 768 768 768 774 777 772 769 775 780 770 766 769 772 777 778 781 786 788 790 792 794 796
809 806 802 799 796 793 790 788 785 784 782 780 779 777 775 773 772 771 770 769 769 768 768 768 768 768 768 767 767 762 755 754 754 753 753 753 753 753 753 753 753 754 756 759 761 761 761 763 764 768 774 775 778 780 779 776 774 773 776 778 776 775 771 769 769 766 767 768 765 769 774 772 771 777 775 767 765 768 773 779 779 782 785 786 789 791 794 796
808 805 801 798 795 792 790 787 785 783 781 779 778 776 774 772 771 770 769 768 768 768 768 768 768 768 767 768 766 759 754 755 754 754 754 752 752 753 752 754 755 755 755 757 760 761 763 765 764 770 773 772 778 782 777 770 772 774 776 781 778 774 772 767 765 764 767 768 760 765 778 779 776 775 767 763 765 768 773 779 780 782 784 786 788 790 792 794
808 804 801 798 794 791 789 786 784 783 781 779 776 774 772 771 770 769 768 768 768 768 768 767 767 767 767 766 760 756 754 754 754 753 753 752 751 752 753 754 756 757 757 757 759 762 765 766 766 769 768 771 777 776 771 767 773 777 777 782 782 781 775 762 760 762 765 766 756 766 788 785 773 767 762 761 764 769 775 778 780 782 783 786 787 789 791 792
808 804 801 797 794 791 788 786 784 782 780 778 775 773 770 770 769 768 768 768 768 767 767 766 766 767 767 762 755 754 754 753 753 753 753 753 752 752 753 755 757 759 759 760 761 763 766 766 767 769 768 771 772 770 771 772 774 778 780 782 784 790 779 759 758 763 766 763 754 768 789 781 767 763 760 759 762 768 775 777 778 781 782 784 786 788 790 790
807 803 800 796 793 790 788 786 784 782 780 777 774 771 769 769 769 768 768 768 767 767 766 766 766 767 766 759 753 753 753 752 752 752 752 752 752 753 753 756 758 759 761 762 763 765 766 767 770 773 772 769 771 775 779 779 777 777 785 787 785 789 779 761 757 760 765 762 754 768 785 778 765 760 757 757 760 765 772 775 777 779 780 783 784 786 788 788
806 802 799 795 792 789 788 785 783 782 779 776 773 770 769 769 768 768 768 767 767 766 766 767 766 767 765 758 753 752 752 752 751 750 751 751 751 752 754 756 759 760 762 762 763 765 767 768 770 772 773 773 776 781 783 785 783 779 784 787 785 786 780 768 760 755 757 761 760 767 778 778 767 758 756 756 759 763 769 773 775 777 778 780 782 784 786 788
805 802 798 795 792 789 787 785 784 781 779 776 772 770 769 768 768 768 768 767 767 766 766 767 766 767 762 754 753 753 751 751 750 749 748 749 750 751 753 756 759 761 761 762 763 765 767 770 772 773 775 777 777 781 791 796 791 784 783 783 782 781 779 775 767 755 753 761 766 766 770 771 764 759 758 756 757 762 768 771 772 775 777 778 780 782 784 786
805 801 798 794 792 789 787 786 784 781 779 775 772 771 770 769 769 769 768 767 766 766 766 766 765 767 762 755 757 757 752 751 749 747 748 746 747 750 752 755 758 760 763 765 765 767 770 771 774 778 779 780 778 781 791 791 783 783 784 783 783 779 777 776 770 759 756 762 766 768 769 765 760 760 760 757 757 761 764 766 769 772 774 777 778 780 782 783
804 800 797 794 791 789 787 786 784 782 780 776 772 771 769 769 769 768 768 767 766 767 768 768 767 770 769 761 760 758 753 750 749 748 748 747 748 750 752 754 757 760 766 769 768 767 771 774 779 782 779 776 774 775 779 778 774 776 778 780 781 779 775 771 766 757 756 765 766 767 768 763 760 760 760 758 756 760 762 764 768 771 773 776 777 778 779 781
803 799 796 793 791 789 787 785 784 782 780 777 773 770 771 774 773 770 769 768 770 771 771 771 771 771 769 763 760 758 753 750 749 749 749 748 749 750 753 755 759 763 766 768 769 766 768 778 780 775 770 768 769 772 772 773 773 775 776 778 778 777 773 766 764 757 753 765 767 761 764 761 758 757 756 757 758 761 764 766 768 770 771 773 775 775 776 777
802 799 795 792 790 789 787 786 785 783 781 779 775 774 780 785 783 781 778 773 771 772 772 771 772 770 766 763 762 760 757 753 750 749 750 749 748 752 755 757 763 767 765 764 767 767 770 776 771 764 764 766 768 771 773 774 775 777 778 778 777 777 772 763 764 759 753 764 765 758 762 760 754 754 752 755 760 762 761 763 766 767 768 769 770 772 773 775
802 798 795 792 790 789 788 786 785 784 783 781 778 780 785 788 788 787 786 781 773 771 771 770 770 769 764 763 762 761 761 758 753 750 749 749 749 754 757 758 763 764 762 764 768 774 776 772 763 760 762 765 769 771 775 777 777 777 777 780 780 775 771 766 762 759 756 764 765 759 763 759 750 750 750 752 756 755 753 755 758 760 763 765 766 768 771 774
802 798 794 791 789 789 787 787 786 784 783 782 781 784 787 788 787 787 787 786 779 771 770 769 769 767 763 762 761 761 762 762 760 754 750 752 753 755 757 759 762 762 763 765 766 774 776 766 757 758 761 767 772 772 775 778 778 777 776 780 780 773 774 772 764 761 758 760 762 760 763 757 749 750 750 748 748 749 749 750 752 753 756 758 759 763 766 769
802 798 794 791 789 788 787 787 786 784 784 784 784 785 786 786 786 786 785 786 782 773 769 769 768 767 765 763 762 762 763 763 763 757 753 754 755 756 756 757 761 763 764 762 761 765 765 756 752 758 763 767 772 773 774 778 779 776 773 775 775 771 773 771 766 763 759 757 757 761 770 763 752 756 753 746 746 748 749 751 754 754 753 755 758 761 763 764
802 799 795 791 789 788 787 787 786 785 785 784 785 785 784 784 783 784 784 783 781 773 769 769 768 768 766 763 763 762 763 763 760 758 754 754 756 756 755 754 758 763 763 763 763 763 759 752 752 759 763 765 769 771 770 774 777 776 770 767 769 770 772 771 769 768 770 770 758 762 783 774 753 753 751 746 750 750 749 751 754 753 753 756 758 759 760 762
802 799 796 792 790 788 787 787 786 785 784 783 784 783 782 782 781 783 783 782 779 773 771 771 769 770 766 764 763 760 764 762 756 756 755 754 754 754 756 753 754 759 759 761 764 761 755 752 753 758 760 762 767 768 765 768 776 776 764 760 765 769 772 773 772 774 779 777 760 758 780 779 759 752 746 744 750 750 749 750 749 749 752 753 754 755 757 758
801 798 796 793 791 788 787 788 787 785 785 784 783 781 780 779 779 782 783 783 781 774 773 772 771 771 768 767 763 761 770 766 756 755 754 755 753 752 757 754 753 755 752 759 769 759 751 753 756 757 759 762 765 765 761 762 772 771 757 757 765 768 772 773 773 776 774 769 764 757 767 780 771 754 743 743 749 749 749 749 746 746 748 749 749 750 751 753
800 798 796 793 792 790 789 788 787 786 786 785 781 779 778 776 778 780 782 786 782 775 776 775 772 771 769 768 765 766 773 769 763 759 752 754 755 753 757 752 751 752 746 757 768 754 746 753 755 756 760 761 758 756 754 758 766 762 753 755 761 764 769 769 772 775 770 775 779 763 762 782 776 753 744 746 749 752 750 746 744 743 744 744 744 745 745 747
800 797 795 793 791 790 789 788 787 786 785 782 780 778 776 776 778 778 782 787 781 776 779 776 773 775 772 770 770 771 772 770 771 765 754 755 754 752 756 753 750 750 745 750 756 749 743 745 746 752 757 755 752 750 749 755 760 755 752 755 756 760 763 766 772 772 774 785 787 768 763 781 775 750 746 751 749 748 746 741 739 739 739 739 739 740 741 743
798 796 794 792 791 789 787 786 786 784 782 780 779 777 776 778 778 783 789 788 781 781 780 777 778 781 777 775 776 775 774 773 772 765 758 757 755 752 753 753 752 751 747 747 749 746 742 738 739 743 745 745 746 748 747 751 752 750 754 757 759 761 762 765 767 770 784 789 778 764 760 775 778 752 740 746 742 737 738 738 737 735 736 736 736 737 739 741
796 794 792 791 790 788 786 784 783 782 780 779 778 777 778 779 781 788 792 786 784 785 782 781 783 782 782 783 782 779 777 775 772 769 765 762 760 760 758 760 762 757 751 751 749 746 743 742 740 737 736 738 744 747 747 746 747 751 756 759 767 771 770 775 775 778 794 789 768 757 754 768 777 752 733 732 727 726 730 731 732 733 733 733 732 733 734 735
795 792 790 789 789 788 787 785 782 780 779 778 778 776 779 784 786 789 789 785 788 788 785 787 786 785 786 786 786 784 781 779 776 774 774 771 771 774 775 778 779 771 760 754 751 749 746 740 737 737 733 733 743 749 750 749 748 753 757 762 776 785 786 792 791 786 789 778 759 752 755 764 761 740 728 727 722 722 722 720 723 726 727 727 727 727 728 729
793 790 788 789 788 788 787 785 782 780 778 777 777 776 780 788 791 791 789 787 790 789 787 788 787 787 789 788 790 788 784 784 781 777 777 776 778 780 782 783 783 779 770 761 757 755 751 741 736 739 736 731 737 746 752 753 750 753 756 763 777 788 796 800 793 786 784 773 755 749 758 764 751 731 721 720 719 717 715 715 715 716 719 721 720 721 723 725
792 789 788 788 788 787 785 782 780 779 778 776 776 778 784 791 792 791 790 788 789 788 787 790 790 789 790 792 794 790 786 787 784 781 779 778 781 783 782 783 781 781 777 771 763 757 758 753 740 737 740 736 733 735 739 742 747 749 746 752 763 770 781 788 784 783 782 771 758 756 762 760 747 730 713 708 709 707 709 710 710 711 712 713 714 717 720 722
790 788 788 787 787 785 783 781 778 778 778 776 777 781 786 793 794 792 791 788 788 788 788 790 790 792 793 794 794 790 790 789 785 785 784 782 787 788 788 788 784 783 782 777 769 762 762 755 740 737 741 740 738 733 728 735 746 743 737 749 756 750 756 767 768 766 769 770 763 758 754 740 729 720 707 706 706 702 705 705 706 710 708 710 714 715 717 718
789 788 787 786 785 783 781 778 776 776 776 775 780 786 789 793 794 792 790 788 788 789 790 790 791 794 797 796 795 792 790 790 788 787 786 787 790 790 792 792 788 787 787 784 781 776 770 756 743 742 740 736 740 738 731 736 742 739 741 748 742 734 743 761 767 759 763 775 763 750 747 735 729 721 706 706 710 705 705 705 704 706 705 708 712 711 712 712
787 787 786 785 783 781 779 776 774 774 774 775 782 790 792 793 793 792 791 790 789 789 791 794 794 796 799 798 797 795 791 791 790 789 788 790 792 792 793 793 789 789 789 790 786 781 779 766 748 745 744 736 736 737 732 730 732 738 743 738 732 737 742 752 767 768 771 777 759 744 746 740 739 732 708 705 712 708 705 705 703 703 703 707 707 705 706 705
789 787 786 786 784 780 777 775 774 774 773 778 786 791 792 793 792 792 793 792 790 789 792 796 796 797 800 799 798 797 794 793 793 792 791 791 792 794 795 793 791 789 787 789 786 779 782 776 754 745 748 740 732 735 735 728 724 730 731 723 731 751 753 752 765 769 771 775 762 749 746 736 732 726 711 708 710 705 703 703 702 701 701 703 702 700 701 701
790 787 786 787 784 780 778 776 775 773 775 784 791 793 794 794 792 792 792 792 791 790 793 796 796 797 798 799 799 798 797 796 796 795 794 793 794 794 795 795 793 790 786 787 786 779 780 781 764 747 747 745 736 736 738 732 725 724 725 722 726 738 743 745 751 753 760 768 763 755 751 737 720 711 708 708 703 699 700 700 700 699 697 697 696 695 697 699
792 788 788 787 783 781 779 776 776 778 784 792 796 796 797 795 793 792 791 791 790 790 793 794 795 797 798 799 799 798 798 798 797 797 796 795 795 795 796 797 795 792 788 785 785 781 779 783 774 754 746 746 740 733 733 733 730 729 732 733 729 727 730 735 737 736 744 757 759 758 754 733 708 700 701 701 697 695 694 694 694 693 691 691 689 689 692 694
794 790 790 788 783 781 778 779 785 790 794 798 799 800 800 796 794 794 792 791 791 791 792 793 795 797 798 799 799 798 798 798 797 798 797 795 796 797 796 797 796 794 790 785 783 782 781 782 780 768 756 749 739 731 733 736 738 739 739 734 730 728 731 742 747 733 730 741 744 750 751 727 699 693 694 691 690 688 686 687 688 686 686 685 684 684 686 687
796 793 792 790 785 781 779 786 796 799 798 801 803 804 802 798 798 797 794 793 793 792 792 793 796 797 798 799 798 799 799 798 797 798 797 795 795 796 795 796 796 794 793 789 784 782 782 783 784 777 765 752 740 733 735 738 739 742 742 735 732 729 728 739 747 734 728 732 729 735 745 724 693 687 690 686 683 681 680 681 681 680 679 680 679 679 680 681
805 802 796 791 788 783 783 792 800 801 803 805 806 805 803 801 801 800 798 797 797 796 795 796 797 798 799 799 798 799 799 798 798 796 797 796 794 794 794 795 796 793 792 791 786 783 782 782 783 776 761 748 738 734 735 735 736 740 742 739 740 740 737 739 739 730 727 728 727 737 745 723 693 684 686 684 682 682 680 679 679 677 675 674 676 676 676 678
812 808 801 795 789 784 789 801 804 805 808 808 806 804 803 803 804 804 803 802 802 801 800 799 799 798 800 800 799 799 799 800 798 796 796 797 795 793 793 794 795 794 793 792 789 787 785 783 781 776 766 754 744 740 739 736 737 743 746 746 746 746 745 741 734 731 730 723 720 734 739 718 694 685 685 683 683 684 681 679 679 679 677 675 675 675 676 677
812 807 803 800 794 791 800 809 809 809 812 811 808 808 806 804 806 807 806 805 805 804 803 802 801 800 801 801 800 800 799 799 799 797 796 797 795 793 793 794 794 794 793 792 789 789 788 785 782 778 770 760 753 754 755 751 749 750 749 749 749 749 749 744 737 737 735 722 714 722 725 709 693 689 689 686 684 684 680 678 678 679 678 677 676 676 677 677
812 808 806 804 800 800 807 812 811 812 814 813 811 811 811 809 808 807 806 805 806 805 804 803 802 802 804 804 804 804 801 798 799 798 798 797 795 793 793 793 794 793 792 791 789 790 790 786 782 781 773 762 761 767 769 765 761 756 751 748 748 748 750 751 747 741 734 725 717 712 710 706 699 694 691 686 684 684 680 678 677 675 675 674 674 674 674 674
815 815 816 813 808 806 808 811 812 814 816 816 814 814 814 813 811 809 807 807 808 807 805 805 805 807 810 810 810 808 804 801 801 800 799 797 794 793 792 793 793 792 791 791 789 790 792 788 781 780 776 766 765 768 767 766 765 760 755 750 747 747 749 751 749 740 735 735 726 709 703 708 704 694 689 685 682 681 679 676 676 674 672 671 670 671 671 671
816 818 819 819 816 815 814 814 815 816 816 816 815 815 815 815 815 815 812 810 809 808 807 807 808 811 813 815 814 811 807 805 803 801 799 798 796 795 794 793 792 791 790 791 790 790 793 789 780 777 775 767 763 763 764 765 763 759 755 752 747 745 748 749 746 740 739 742 733 715 708 712 706 696 692 687 683 681 677 675 675 674 672 672 672 673 672 669
819 820 819 818 819 820 819 818 818 817 816 814 813 815 816 816 817 818 816 814 812 810 810 811 811 811 813 814 815 813 809 807 804 802 801 800 800 799 798 796 791 789 791 791 790 790 791 786 780 779 776 768 762 762 762 763 760 755 752 749 745 742 742 742 740 735 735 738 732 720 715 715 709 702 698 692 688 686 681 678 678 677 677 677 676 675 672 668
822 823 821 820 820 820 819 819 819 818 816 815 815 815 816 817 817 818 816 816 815 812 812 813 812 812 812 814 815 814 810 807 807 805 803 803 802 800 799 797 792 790 792 791 790 790 790 786 780 779 778 769 760 758 758 758 756 753 748 742 739 738 737 735 733 730 730 732 728 722 721 718 708 703 701 695 690 690 687 685 683 681 680 680 678 676 672 667
823 823 823 823 822 819 819 819 819 818 817 816 816 816 817 818 819 819 816 814 815 814 813 814 813 812 811 812 813 811 807 805 805 803 801 801 800 797 796 794 792 792 792 792 790 789 790 787 781 783 784 770 757 756 755 752 751 750 746 740 735 735 733 730 730 731 732 732 727 721 719 718 710 706 703 696 692 692 692 690 689 686 683 682 680 676 672 667
823 822 822 823 823 820 820 820 819 817 816 816 816 817 818 818 818 818 817 814 813 813 812 813 813 812 811 809 808 805 802 801 800 798 796 795 793 792 791 789 788 789 789 789 790 788 789 788 784 786 785 770 757 756 754 753 753 746 733 726 726 729 729 728 731 734 732 732 729 721 717 717 714 709 704 699 695 695 693 692 690 688 685 682 678 675 670 666